Location: Caltech
(34.1382°N, 118.1253°W)
Time: 06:58:30
(UTC-07:00)

CZ-2C R/B - Visible Passes

Search period start: 21 September 2017 00:00
Search period end: 01 October 2017 00:00
Orbit: 667 x 786 km, 98.1° (Epoch: 20 September)

Date Brightness Start Highest point End Pass type
(mag) Time Alt. Az. Time Alt. Az. Time Alt. Az.
21 Sep 4.8 05:47:42 10° NE 05:51:30 25° E 05:55:19 10° SSE visible
23 Sep 4.7 05:49:53 10° NE 05:53:47 27° E 05:57:45 10° SSE visible
25 Sep 4.6 05:52:04 10° NE 05:56:05 29° E 06:00:09 10° SSE visible
27 Sep 4.4 05:54:15 10° NE 05:58:22 31° E 06:02:34 10° SSE visible
29 Sep 4.3 05:56:27 10° NNE 06:00:40 33° E 06:04:58 10° SSE visible
